Time,TemperatureF,DewpointF,PressureIn,WindDirection,WindDirectionDegrees,WindSpeedMPH,WindSpeedGustMPH,Humidity,HourlyPrecipIn,Conditions,Clouds,dailyrainin,SolarRadiationWatts/m^2,SoftwareType,DateUTC
2013-03-27 00:02:00,46.0,43.0,-100.00,SSE,154,4.0,6.0,89,0.00,,,0.00,0.000000,,2013-03-27 07:02:00,
2013-03-27 00:12:00,46.0,43.0,-100.00,SSE,154,4.0,6.0,89,0.00,,,0.00,0.000000,,2013-03-27 07:12:00,
2013-03-27 00:32:00,47.0,41.0,-100.00,SE,132,4.0,5.0,78,0.00,,,0.00,0.000000,,2013-03-27 07:32:00,
2013-03-27 00:43:00,47.0,41.0,-100.00,SE,132,4.0,5.0,78,0.00,,,0.00,0.000000,,2013-03-27 07:43:00,
2013-03-27 00:53:00,47.0,41.0,-100.00,SE,132,4.0,5.0,78,0.00,,,0.00,0.000000,,2013-03-27 07:53:00,
2013-03-27 01:02:00,47.0,41.0,-100.00,SE,132,4.0,5.0,78,0.00,,,0.00,0.000000,,2013-03-27 08:02:00,
2013-03-27 01:11:00,47.0,41.0,-100.00,SE,132,4.0,5.0,78,0.00,,,0.00,0.000000,,2013-03-27 08:11:00,
2013-03-27 01:32:00,49.0,42.0,-100.00,SW,219,4.0,6.0,78,0.00,,,0.00,0.000000,,2013-03-27 08:32:00,
2013-03-27 01:43:00,49.0,42.0,-100.00,SW,219,4.0,6.0,78,0.00,,,0.00,0.000000,,2013-03-27 08:43:00,
2013-03-27 01:52:00,49.0,42.0,-100.00,SW,219,4.0,6.0,78,0.00,,,0.00,0.000000,,2013-03-27 08:52:00,
2013-03-27 02:01:00,49.0,42.0,-100.00,SW,219,4.0,6.0,78,0.00,,,0.00,0.000000,,2013-03-27 09:01:00,
2013-03-27 02:11:00,49.0,42.0,-100.00,SW,219,4.0,6.0,78,0.00,,,0.00,0.000000,,2013-03-27 09:11:00,
2013-03-27 02:42:00,47.0,41.0,-100.00,South,177,4.0,6.0,79,0.00,,,0.00,0.000000,,2013-03-27 09:42:00,
2013-03-27 02:52:00,47.0,41.0,-100.00,South,177,4.0,6.0,79,0.00,,,0.00,0.000000,,2013-03-27 09:52:00,
2013-03-27 03:02:00,47.0,41.0,-100.00,South,177,4.0,6.0,79,0.00,,,0.00,0.000000,,2013-03-27 10:02:00,
2013-03-27 03:12:00,47.0,41.0,-100.00,South,177,4.0,6.0,79,0.00,,,0.00,0.000000,,2013-03-27 10:12:00,
2013-03-27 03:32:00,48.0,41.0,-100.00,WNW,299,2.0,7.0,77,0.00,,,0.00,0.000000,,2013-03-27 10:32:00,
2013-03-27 03:42:00,48.0,41.0,-100.00,WNW,299,2.0,7.0,77,0.00,,,0.00,0.000000,,2013-03-27 10:42:00,
2013-03-27 03:52:00,48.0,41.0,-100.00,WNW,299,2.0,7.0,77,0.00,,,0.00,0.000000,,2013-03-27 10:52:00,
2013-03-27 04:02:00,48.0,41.0,-100.00,WNW,299,2.0,7.0,77,0.00,,,0.00,0.000000,,2013-03-27 11:02:00,
2013-03-27 04:11:00,48.0,41.0,-100.00,WNW,299,2.0,7.0,77,0.00,,,0.00,0.000000,,2013-03-27 11:11:00,
2013-03-27 04:32:00,47.0,42.0,-100.00,West,265,2.0,5.0,82,0.00,,,0.00,0.000000,,2013-03-27 11:32:00,
2013-03-27 04:42:00,47.0,42.0,-100.00,West,265,2.0,5.0,82,0.00,,,0.00,0.000000,,2013-03-27 11:42:00,
2013-03-27 04:52:00,47.0,42.0,-100.00,West,265,2.0,5.0,82,0.00,,,0.00,0.000000,,2013-03-27 11:52:00,
2013-03-27 05:02:00,47.0,42.0,-100.00,West,265,2.0,5.0,82,0.00,,,0.00,0.000000,,2013-03-27 12:02:00,
2013-03-27 05:11:00,47.0,42.0,-100.00,West,265,2.0,5.0,82,0.00,,,0.00,0.000000,,2013-03-27 12:11:00,
2013-03-27 05:32:00,46.0,41.0,-100.00,ENE,68,1.0,5.0,84,0.00,,,0.00,0.000000,,2013-03-27 12:32:00,
2013-03-27 05:43:00,46.0,41.0,-100.00,ENE,68,1.0,5.0,84,0.00,,,0.00,0.000000,,2013-03-27 12:43:00,
2013-03-27 05:52:00,46.0,41.0,-100.00,ENE,68,1.0,5.0,84,0.00,,,0.00,0.000000,,2013-03-27 12:52:00,
2013-03-27 06:02:00,46.0,41.0,-100.00,ENE,68,1.0,5.0,84,0.00,,,0.00,0.000000,,2013-03-27 13:02:00,
2013-03-27 06:11:00,46.0,41.0,-100.00,ENE,68,1.0,5.0,84,0.00,,,0.00,0.000000,,2013-03-27 13:11:00,
2013-03-27 06:42:00,45.0,43.0,-100.00,WNW,300,2.0,4.0,91,0.00,,,0.00,0.000000,,2013-03-27 13:42:00,
2013-03-27 06:53:00,45.0,43.0,-100.00,WNW,300,2.0,4.0,91,0.00,,,0.00,0.000000,,2013-03-27 13:53:00,
2013-03-27 07:02:00,45.0,43.0,-100.00,WNW,300,2.0,4.0,91,0.00,,,0.00,0.000000,,2013-03-27 14:02:00,
2013-03-27 07:11:00,45.0,43.0,-100.00,WNW,300,2.0,4.0,91,0.00,,,0.00,0.000000,,2013-03-27 14:11:00,
2013-03-27 07:42:00,45.0,43.0,-100.00,East,101,2.0,4.0,93,0.00,,,0.00,0.000000,,2013-03-27 14:42:00,
2013-03-27 07:52:00,45.0,43.0,-100.00,East,101,2.0,4.0,93,0.00,,,0.00,0.000000,,2013-03-27 14:52:00,
2013-03-27 08:02:00,45.0,43.0,-100.00,East,101,2.0,4.0,93,0.00,,,0.00,0.000000,,2013-03-27 15:02:00,
2013-03-27 08:11:00,45.0,43.0,-100.00,East,101,2.0,4.0,93,0.00,,,0.00,0.000000,,2013-03-27 15:11:00,
2013-03-27 08:33:00,45.0,44.0,-100.00,SW,215,3.0,5.0,96,0.00,,,0.00,28.000000,,2013-03-27 15:33:00,
2013-03-27 08:43:00,45.0,44.0,-100.00,SW,215,3.0,5.0,96,0.00,,,0.00,28.000000,,2013-03-27 15:43:00,
2013-03-27 08:52:00,45.0,44.0,-100.00,SW,215,3.0,5.0,96,0.00,,,0.00,28.000000,,2013-03-27 15:52:00,
2013-03-27 09:02:00,45.0,44.0,-100.00,SW,215,3.0,5.0,96,0.00,,,0.00,28.000000,,2013-03-27 16:02:00,
2013-03-27 09:12:00,45.0,44.0,-100.00,SW,215,3.0,5.0,96,0.00,,,0.00,28.000000,,2013-03-27 16:12:00,
2013-03-27 11:33:00,52.0,49.0,-100.00,East,91,4.0,6.0,89,-99.99,,,-99.99,432.000000,,2013-03-27 18:33:00,
2013-03-27 11:42:00,52.0,49.0,-100.00,East,91,4.0,6.0,89,-99.99,,,-99.99,432.000000,,2013-03-27 18:42:00,
2013-03-27 11:53:00,52.0,49.0,-100.00,East,91,4.0,6.0,89,-99.99,,,-99.99,432.000000,,2013-03-27 18:53:00,
2013-03-27 12:02:00,52.0,49.0,-100.00,East,91,4.0,6.0,89,-99.99,,,-99.99,432.000000,,2013-03-27 19:02:00,
2013-03-27 12:11:00,52.0,49.0,-100.00,East,91,4.0,6.0,89,-99.99,,,-99.99,432.000000,,2013-03-27 19:11:00,
2013-03-27 12:42:00,53.0,51.0,-100.00,NNE,29,2.0,6.0,94,0.00,,,0.04,278.000000,,2013-03-27 19:42:00,
2013-03-27 12:52:00,53.0,51.0,-100.00,NNE,29,2.0,6.0,94,0.00,,,0.04,278.000000,,2013-03-27 19:52:00,
2013-03-27 13:02:00,53.0,51.0,-100.00,NNE,29,2.0,6.0,94,0.00,,,0.04,278.000000,,2013-03-27 20:02:00,
2013-03-27 13:12:00,53.0,51.0,-100.00,NNE,29,2.0,6.0,94,0.00,,,0.04,278.000000,,2013-03-27 20:12:00,
2013-03-27 13:43:00,58.0,51.0,-100.00,SSW,195,7.0,17.0,77,0.00,,,0.04,636.000000,,2013-03-27 20:43:00,
2013-03-27 13:52:00,58.0,51.0,-100.00,SSW,195,7.0,17.0,77,0.00,,,0.04,636.000000,,2013-03-27 20:52:00,
2013-03-27 14:02:00,58.0,51.0,-100.00,SSW,195,7.0,17.0,77,0.00,,,0.04,636.000000,,2013-03-27 21:02:00,
2013-03-27 14:12:00,58.0,51.0,-100.00,SSW,195,7.0,17.0,77,0.00,,,0.04,636.000000,,2013-03-27 21:12:00,
2013-03-27 14:32:00,55.0,47.0,-100.00,WSW,252,13.0,20.0,73,0.00,,,0.04,494.000000,,2013-03-27 21:32:00,
2013-03-27 14:43:00,55.0,47.0,-100.00,WSW,252,13.0,20.0,73,0.00,,,0.04,494.000000,,2013-03-27 21:43:00,
2013-03-27 14:52:00,55.0,47.0,-100.00,WSW,252,13.0,20.0,73,0.00,,,0.04,494.000000,,2013-03-27 21:52:00,
2013-03-27 15:02:00,55.0,47.0,-100.00,WSW,252,13.0,20.0,73,0.00,,,0.04,494.000000,,2013-03-27 22:02:00,
2013-03-27 15:12:00,55.0,47.0,-100.00,WSW,252,13.0,20.0,73,0.00,,,0.04,494.000000,,2013-03-27 22:12:00,
2013-03-27 15:42:00,57.0,45.0,-100.00,SSW,210,11.0,21.0,64,0.00,,,0.04,627.000000,,2013-03-27 22:42:00,
2013-03-27 15:52:00,57.0,45.0,-100.00,SSW,210,11.0,21.0,64,0.00,,,0.04,627.000000,,2013-03-27 22:52:00,
2013-03-27 16:02:00,57.0,45.0,-100.00,SSW,210,11.0,21.0,64,0.00,,,0.04,627.000000,,2013-03-27 23:02:00,
2013-03-27 16:11:00,57.0,45.0,-100.00,SSW,210,11.0,21.0,64,0.00,,,0.04,627.000000,,2013-03-27 23:11:00,
2013-03-27 16:42:00,54.0,43.0,-100.00,WSW,241,10.0,23.0,66,0.00,,,0.04,419.000000,,2013-03-27 23:42:00,
2013-03-27 16:52:00,54.0,43.0,-100.00,WSW,241,10.0,23.0,66,0.00,,,0.04,419.000000,,2013-03-27 23:52:00,
2013-03-27 17:02:00,54.0,43.0,-100.00,WSW,241,10.0,23.0,66,0.00,,,0.04,419.000000,,2013-03-28 00:02:00,
2013-03-27 17:12:00,54.0,43.0,-100.00,WSW,241,10.0,23.0,66,0.00,,,0.04,419.000000,,2013-03-28 00:12:00,